Temperature
19 19 19 19 19 19 19 19 19 19 19 19 19 19 19 19 19 18 18 19 19 19 19 19 18 18 18 18 18 18 18 18 18 18 18 18 18 18 18 18 18 18 18
20 20 20 20 19 19 19 19 19 19 19 19 19 19 19 19 18 18 18 18 18 19 18 18 18 18 18 18 18 18 18 18 18 18 18 18 18 18 18 18 18 18 18
20 20 20 19 19 19 19 19 19 19 19 19 19 19 19 19 18 18 18 18 19 19 18 18 18 18 18 18 18 18 18 18 18 18 18 18 18 18 18 18 18 18 18
20 20 20 19 19 19 19 19 19 19 19 19 19 19 19 19 19 19 19 19 19 19 19 18 18 18 18 18 18 18 18 18 18 18 18 18 18 18 18 18 18 18 18
20 20 20 20 20 20 19 19 19 19 19 19 19 19 19 19 19 19 19 19 19 19 19 18 18 18 18 18 18 18 18 18 18 18 18 18 18 18 18 18 18 18 18
20 20 20 20 20 20 19 19 19 19 19 19 19 19 19 19 19 19 19 19 19 19 19 19 19 18 18 18 18 18 18 18 18 18 18 18 18 18 18 18 18 18 17
20 20 20 20 20 20 20 20 19 19 19 19 19 19 19 19 19 19 19 19 19 19 19 19 19 18 18 18 18 18 18 18 18 18 18 18 18 18 18 18 18 17 17
20 20 20 20 20 20 20 19 19 19 19 19 19 19 19 19 19 19 19 19 19 19 19 19 19 19 18 18 18 18 18 18 18 18 18 18 18 18 18 18 17 17 17
20 20 20 20 20 20 20 19 20 19 19 19 19 19 19 19 19 19 19 19 19 19 19 19 19 19 18 18 18 18 18 18 18 18 18 18 18 18 18 18 17 17 17
20 20 20 20 20 20 20 19 19 19 19 19 19 19 19 19 19 19 19 19 19 19 19 19 19 19 19 18 18 18 18 18 18 18 18 18 18 18 18 18 17 17 17
20 20 20 20 20 20 20 19 19 19 19 19 19 19 19 19 19 19 19 19 19 19 19 19 19 19 19 18 18 18 18 18 18 18 18 18 18 18 18 18 18 17 17
20 20 20 20 20 20 20 19 19 19 19 19 19 19 19 19 19 19 19 19 19 19 19 19 19 19 19 19 18 18 18 18 18 18 18 18 18 18 18 18 18 18 17
20 20 20 20 20 20 20 19 19 19 19 19 19 19 19 19 19 19 19 19 19 19 19 19 19 19 19 19 18 18 18 18 18 18 18 18 18 18 18 18 18 18 17
20 20 20 20 20 20 20 19 19 19 19 19 19 19 19 19 19 19 19 19 19 19 19 19 19 19 19 19 19 19 19 18 18 18 18 18 18 18 18 18 18 17 17
21 20 20 20 20 20 20 19 19 19 19 19 19 19 19 19 19 19 19 19 19 19 19 19 19 19 19 19 19 19 19 18 18 18 18 18 18 18 18 18 18 17 17
21 21 20 20 20 20 20 20 19 19 19 19 19 19 19 19 19 19 19 19 19 19 19 19 19 19 19 19 19 19 19 19 18 18 18 18 18 18 18 18 17 17 17
21 21 20 20 20 20 20 20 19 19 19 19 19 19 19 19 19 19 19 19 19 19 19 19 19 19 19 19 19 19 19 19 19 18 18 18 18 18 18 18 18 17 17
21 21 20 20 20 20 20 20 19 19 19 19 19 19 19 19 19 19 19 19 19 19 19 19 19 19 19 19 19 19 19 19 19 19 18 18 18 18 18 18 18 17 17
21 21 20 20 20 20 20 20 19 19 19 19 19 19 19 19 19 19 19 19 19 19 19 19 19 19 19 19 19 19 19 19 19 19 19 18 18 18 18 18 18 17 17
21 21 21 20 20 20 20 20 19 19 19 19 19 19 19 19 19 19 19 19 19 19 19 19 19 19 19 19 19 19 19 19 19 19 19 18 18 18 18 18 18 17 17
21 21 21 20 20 20 20 20 19 19 19 19 19 19 19 19 19 19 19 19 19 19 19 19 19 19 19 19 19 19 19 19 19 19 19 19 18 18 18 18 18 18 18
22 21 21 21 20 20 20 20 20 19 19 19 19 19 19 19 19 19 19 19 19 19 19 19 19 19 19 19 19 19 19 19 19 19 19 19 19 18 18 18 18 18 18
22 21 21 21 20 20 20 20 19 19 19 19 19 19 19 19 19 19 19 19 19 19 19 19 19 19 19 19 19 19 19 19 18 19 19 19 19 18 18 18 18 18 18
22 22 21 21 20 20 20 20 19 19 19 19 19 19 19 19 19 19 19 19 18 18 18 18 18 18 18 19 19 19 19 18 18 18 19 19 19 18 18 18 18 18 18
22 22 21 21 20 20 20 20 19 19 19 19 19 19 19 19 19 19 19 19 19 19 18 18 18 18 18 18 18 19 19 18 18 18 18 18 19 18 18 18 18 18 18
22 22 22 21 21 20 20 20 20 20 19 19 19 19 19 19 19 19 19 19 19 19 18 18 18 18 18 18 18 18 18 18 18 18 18 18 18 18 18 18 18 18 18
Wind_Speed
3 6 12 13 14 14 15 15 15 15 15 15 16 16 16 16 16 16 15 15 14 13 13 12 12 11 10 10 10 10 10 10 10 10 10 10 10 10 10 10 10 9 11
7 9 13 13 14 14 14 14 14 14 15 15 15 15 15 15 15 14 14 14 13 12 11 11 11 10 9 9 9 9 9 9 8 8 8 8 8 9 9 9 10 9 10
9 9 12 13 14 14 14 13 14 14 14 14 14 14 14 14 14 13 13 13 12 11 11 11 10 9 8 8 8 7 7 7 8 8 7 6 6 8 9 9 10 10 10
9 9 11 13 14 14 14 13 13 14 14 14 13 13 13 13 12 12 12 12 11 11 10 10 9 8 7 7 6 5 5 6 7 7 6 5 5 7 8 9 9 10 9
9 10 12 14 14 13 13 13 13 13 13 13 13 12 12 12 12 11 11 11 11 10 10 9 8 7 6 6 5 4 5 6 7 7 6 6 6 7 8 8 9 9 9
9 10 12 14 13 13 13 13 13 13 13 13 12 12 12 12 12 12 11 11 10 10 9 7 6 5 5 4 3 3 4 5 6 7 6 6 6 8 8 8 9 9 9
9 9 12 14 13 12 12 12 12 12 12 12 12 12 12 12 11 11 11 10 9 8 7 6 5 4 3 2 1 2 3 6 6 6 6 6 7 8 8 8 9 9 9
10 9 11 13 14 13 12 12 12 12 11 11 11 11 11 11 11 10 9 9 8 7 6 5 4 3 3 2 1 1 3 5 6 6 6 6 7 8 9 9 9 9 9
9 8 7 9 12 12 12 11 11 11 11 11 11 11 10 10 10 9 8 7 7 6 5 5 4 3 3 2 1 0 3 6 5 5 6 6 8 9 9 9 9 9 8
8 7 6 7 8 9 10 11 11 11 10 11 10 10 10 10 9 8 7 6 6 6 5 5 4 3 3 2 2 1 2 4 4 4 5 6 9 9 9 9 10 9 8
8 6 6 6 6 8 8 9 10 10 10 9 9 9 8 6 6 6 6 7 6 6 5 4 4 4 3 3 3 1 1 3 4 4 6 8 9 9 9 9 10 10 9
9 7 6 6 6 6 7 7 7 6 7 6 6 6 5 5 6 6 7 7 7 6 5 4 4 4 3 3 3 0 2 3 4 5 6 8 10 9 9 9 10 10 9
8 8 7 7 6 6 4 6 5 5 5 5 6 6 6 5 5 5 4 4 5 4 3 4 3 3 2 2 1 1 3 4 4 5 7 9 9 9 8 9 10 10 9
8 8 7 7 6 5 5 4 4 4 4 4 6 7 6 3 3 3 3 4 3 3 2 2 2 3 3 2 2 2 3 4 5 5 7 9 10 10 9 9 10 10 10
8 8 7 7 6 5 4 4 4 4 4 5 5 6 7 4 3 3 3 3 4 3 3 2 2 2 1 1 1 2 2 4 5 6 6 9 10 10 9 9 10 10 10
8 8 7 7 6 5 4 3 4 4 5 5 5 6 7 5 3 2 2 2 2 4 4 2 2 1 1 0 0 2 3 4 4 6 6 8 10 10 10 10 10 10 10
8 8 8 7 6 6 4 4 4 4 5 4 4 5 6 5 4 3 2 1 1 2 2 1 1 1 0 1 1 2 2 3 4 4 6 6 8 9 9 9 9 10 10
8 8 7 7 6 5 4 3 3 4 4 4 5 5 5 5 5 3 2 1 1 2 1 1 1 1 1 0 0 1 1 1 3 4 5 6 6 6 8 9 9 9 9
9 9 7 6 6 5 4 3 3 3 3 3 4 4 4 4 4 3 2 1 2 1 0 0 1 1 1 0 1 1 1 1 2 3 3 4 6 6 6 8 9 9 9
9 8 7 6 6 5 3 3 2 2 1 2 3 3 4 3 3 3 2 1 2 2 0 1 1 0 1 1 1 1 1 1 1 2 3 3 4 5 6 6 6 8 9
8 8 7 7 6 4 3 3 2 2 1 1 2 3 4 4 3 3 2 1 1 1 1 1 1 1 1 0 1 2 2 2 2 2 2 3 4 5 6 7 6 6 6
10 8 8 8 6 5 4 3 3 2 2 2 1 2 3 4 3 3 3 2 1 1 1 1 1 1 1 0 1 1 1 3 3 2 2 3 4 4 4 7 7 7 7
10 10 10 8 7 6 5 3 2 2 2 1 1 1 1 3 3 3 3 2 2 2 1 0 1 2 0 1 1 2 2 2 2 3 2 2 3 3 4 5 7 8 9
11 10 9 8 7 6 6 5 5 4 3 3 2 2 2 2 3 3 3 3 2 2 1 1 1 1 2 0 1 0 2 3 1 2 3 2 2 3 4 5 5 7 9
11 10 9 8 7 6 6 7 5 4 3 2 2 2 2 1 2 3 3 2 2 2 2 1 1 1 2 2 1 0 1 1 1 2 2 3 2 2 3 3 4 5 7
9 9 9 8 7 7 7 7 7 6 5 4 3 3 2 2 2 2 3 2 2 2 2 2 2 2 2 1 1 1 1 1 1 2 2 2 2 3 2 2 3 4 6
Wind_Direction
132 133 123 115 110 109 110 110 111 114 115 115 115 114 115 116 118 120 121 121 121 120 119 118 116 118 120 123 127 132 137 139 140 143 145 146 148 147 146 140 135 134 138
139 130 123 118 114 113 112 112 113 116 119 118 117 117 118 118 118 120 122 121 122 124 123 120 119 120 124 128 131 134 136 138 139 140 144 143 146 149 149 147 145 143 144
130 129 125 120 118 116 114 114 115 117 119 120 121 122 122 122 122 122 124 124 124 124 123 122 123 125 126 129 134 135 136 139 138 137 134 129 138 144 147 146 147 147 146
134 134 128 125 121 119 118 117 116 117 120 121 121 123 125 127 125 125 128 128 128 127 126 125 125 127 131 134 138 143 148 153 150 143 135 135 141 144 148 149 149 150 150
131 132 132 128 124 124 124 121 118 118 120 123 124 126 126 128 128 128 129 130 130 128 127 127 129 132 136 139 143 150 157 161 153 145 138 135 140 148 149 148 143 144 149
134 138 137 132 128 126 127 126 124 124 124 126 127 127 127 127 127 127 127 130 132 131 131 132 135 140 141 140 142 145 158 155 149 144 143 144 147 152 154 152 148 149 150
141 146 143 138 134 131 130 131 131 131 131 130 130 129 129 131 131 130 131 133 135 136 140 140 142 145 147 150 138 128 141 146 143 142 147 152 156 156 158 158 157 155 155
145 147 146 144 140 138 136 136 138 137 136 135 136 135 136 137 135 135 137 140 143 146 149 151 153 161 175 191 191 134 126 141 137 149 155 162 163 164 165 164 165 162 161
142 144 146 148 145 144 140 139 141 142 140 139 140 142 144 146 147 145 148 151 152 159 166 170 174 188 207 238 269 52 128 138 130 152 160 164 169 171 170 169 169 167 169
141 143 146 147 148 148 146 145 148 148 149 148 148 149 150 152 154 158 162 166 167 174 182 188 197 214 237 263 273 271 146 147 138 157 170 175 177 178 177 175 173 172 174
148 153 150 151 152 152 152 155 155 154 156 157 158 160 157 157 163 171 184 186 184 189 196 205 221 240 258 275 285 298 157 170 163 167 173 180 183 184 181 179 178 178 177
156 161 160 158 162 163 159 154 160 160 158 161 163 165 165 171 184 190 195 196 200 204 210 222 239 254 270 283 296 38 158 177 169 167 180 188 188 186 184 182 182 180 180
157 156 159 160 161 162 158 156 160 164 166 173 175 180 180 180 190 197 197 204 206 209 226 246 260 264 267 273 276 162 175 184 180 173 188 191 188 181 178 179 182 181 182
144 155 155 152 151 155 152 157 161 166 174 180 186 184 174 173 183 192 194 197 197 203 226 249 268 280 276 266 221 190 182 181 179 176 191 188 183 180 177 177 181 181 185
145 150 153 148 151 151 143 156 157 170 174 181 179 178 171 171 180 181 188 186 198 201 207 231 257 272 282 271 222 175 180 177 172 181 188 185 180 179 178 178 181 184 190
149 150 151 147 152 149 147 153 158 169 173 172 173 174 169 170 171 164 163 176 196 201 206 213 240 248 269 235 168 174 186 180 179 180 185 185 184 183 185 186 187 188 192
152 149 152 152 150 149 152 158 156 167 163 164 171 172 171 168 169 159 148 166 201 192 183 185 207 167 181 101 127 166 168 178 179 179 184 188 194 193 192 194 195 195 196
149 152 159 153 149 149 149 147 143 157 156 160 164 165 167 163 162 150 149 183 190 168 145 144 134 92 59 67 216 207 155 159 188 188 185 187 194 197 200 202 200 196 195
157 155 158 149 152 154 151 143 141 148 150 157 157 158 164 165 161 154 148 157 147 120 87 159 71 115 144 254 248 241 209 188 202 192 184 192 197 197 200 207 203 198 197
160 156 155 151 154 151 139 120 102 99 120 144 156 165 165 166 156 143 132 136 132 118 108 68 84 27 182 212 246 295 270 241 221 197 206 197 201 205 205 207 204 204 198
160 159 160 157 162 150 137 135 133 149 160 146 164 171 166 167 157 146 133 136 128 140 174 145 136 68 355 114 61 12 345 305 262 228 200 187 200 207 203 202 200 199 196
170 168 166 168 169 167 164 165 168 163 175 171 168 174 173 167 174 166 147 162 158 143 97 71 112 91 325 62 134 96 2 340 313 256 220 202 207 205 204 203 198 198 200
174 174 174 176 174 176 168 149 130 90 66 68 136 184 199 176 180 162 151 162 162 155 176 223 135 137 180 338 123 150 150 236 295 315 269 230 209 204 210 202 201 206 207
181 176 171 173 172 174 164 158 159 164 176 202 190 189 202 189 181 170 160 165 169 163 178 223 159 151 138 281 322 346 167 173 184 308 318 302 233 215 217 212 200 202 204
178 173 170 169 171 172 164 166 166 171 187 190 168 172 196 214 207 189 169 172 177 173 180 184 140 139 151 171 203 293 24 33 148 166 285 309 315 259 226 211 197 198 202
173 170 169 169 175 176 170 170 172 176 181 181 191 191 202 219 234 215 186 188 195 188 190 195 187 169 181 185 188 163 162 174 216 179 223 270 283 286 245 213 206 204 207
Height
1513 1512 1512 1512 1512 1512 1512 1513 1513 1514 1515 1516 1517 1518 1519 1520 1521 1522 1523 1524 1525 1526 1527 1528 1528 1529 1530 1530 1531 1532 1532 1533 1534 1534 1535 1536 1537 1537 1538 1538 1539 1539 1540
1513 1513 1514 1513 1513 1514 1514 1514 1515 1516 1517 1518 1519 1520 1521 1522 1523 1524 1525 1525 1526 1527 1528 1529 1529 1530 1530 1531 1531 1532 1532 1533 1533 1534 1535 1536 1536 1537 1538 1538 1539 1539 1540
1514 1514 1515 1515 1515 1515 1516 1516 1517 1518 1518 1519 1520 1521 1522 1523 1524 1525 1526 1527 1527 1528 1529 1530 1530 1531 1531 1531 1531 1531 1531 1532 1533 1534 1535 1535 1536 1537 1538 1538 1539 1539 1540
1516 1516 1516 1516 1517 1517 1517 1518 1519 1519 1520 1521 1522 1523 1524 1525 1525 1526 1527 1528 1529 1530 1530 1531 1531 1531 1531 1531 1531 1530 1530 1530 1532 1533 1534 1535 1536 1537 1537 1538 1539 1539 1540
1517 1517 1518 1518 1518 1519 1519 1520 1521 1521 1522 1523 1523 1524 1525 1526 1527 1528 1528 1529 1530 1531 1531 1531 1532 1532 1532 1532 1530 1529 1528 1528 1530 1532 1534 1535 1536 1536 1537 1538 1538 1539 1540
1518 1519 1519 1520 1520 1521 1521 1522 1522 1523 1524 1525 1525 1526 1527 1527 1528 1529 1530 1531 1532 1532 1532 1532 1533 1533 1533 1532 1530 1527 1526 1527 1529 1532 1534 1535 1536 1536 1537 1537 1538 1539 1539
1520 1521 1521 1522 1522 1522 1523 1523 1524 1525 1525 1526 1527 1527 1528 1529 1530 1531 1531 1532 1533 1533 1533 1534 1534 1534 1533 1533 1531 1529 1527 1527 1530 1532 1534 1535 1535 1536 1536 1537 1538 1538 1539
1522 1522 1523 1523 1524 1524 1525 1525 1526 1526 1527 1528 1528 1529 1530 1531 1531 1532 1533 1534 1534 1534 1534 1535 1535 1535 1535 1534 1533 1532 1530 1531 1532 1533 1534 1535 1535 1535 1536 1536 1537 1538 1538
1524 1524 1524 1525 1525 1526 1527 1527 1528 1528 1529 1529 1530 1531 1531 1532 1533 1534 1535 1535 1535 1535 1536 1536 1536 1536 1536 1536 1535 1534 1534 1533 1534 1534 1534 1535 1535 1535 1535 1536 1536 1537 1537
1525 1526 1526 1527 1527 1528 1528 1529 1529 1530 1531 1531 1532 1532 1533 1534 1535 1536 1536 1536 1537 1537 1537 1537 1537 1537 1537 1537 1537 1536 1535 1535 1535 1535 1535 1535 1535 1535 1535 1535 1535 1536 1537
1526 1527 1528 1528 1528 1529 1530 1530 1531 1532 1532 1533 1534 1534 1535 1535 1536 1537 1537 1538 1538 1538 1538 1538 1538 1538 1538 1538 1538 1537 1536 1536 1536 1536 1535 1535 1534 1534 1534 1534 1534 1535 1536
1527 1528 1529 1529 1530 1530 1531 1532 1532 1533 1533 1534 1535 1535 1536 1537 1537 1538 1538 1538 1539 1539 1539 1539 1539 1539 1539 1539 1539 1538 1537 1537 1536 1536 1535 1534 1534 1533 1533 1532 1533 1534 1535
1528 1529 1529 1530 1531 1531 1532 1533 1533 1534 1534 1535 1536 1536 1537 1537 1538 1539 1539 1539 1539 1540 1540 1540 1540 1539 1540 1540 1539 1539 1538 1537 1537 1536 1535 1534 1534 1533 1532 1531 1532 1533 1534
1528 1529 1530 1531 1532 1532 1533 1533 1534 1535 1535 1536 1537 1537 1538 1538 1539 1539 1539 1540 1540 1540 1540 1540 1540 1540 1540 1540 1540 1539 1539 1538 1537 1537 1535 1534 1534 1533 1532 1531 1532 1533 1534
1529 1530 1531 1532 1532 1533 1534 1534 1535 1535 1536 1537 1537 1538 1538 1539 1539 1540 1540 1540 1540 1541 1541 1541 1541 1541 1540 1540 1540 1539 1539 1538 1538 1537 1536 1535 1534 1533 1533 1533 1533 1534 1535
1529 1530 1531 1532 1533 1534 1534 1535 1535 1536 1537 1538 1538 1539 1539 1540 1540 1540 1540 1540 1540 1541 1541 1541 1541 1541 1541 1540 1540 1539 1539 1538 1538 1537 1536 1535 1534 1534 1534 1534 1534 1534 1535
1529 1530 1531 1532 1533 1534 1534 1535 1536 1536 1537 1538 1538 1539 1539 1540 1540 1540 1540 1540 1541 1541 1541 1541 1541 1541 1541 1540 1540 1539 1539 1538 1537 1537 1536 1536 1535 1535 1534 1534 1534 1534 1535
1529 1530 1531 1532 1533 1534 1535 1536 1536 1537 1537 1538 1539 1539 1539 1540 1540 1540 1540 1541 1541 1541 1541 1541 1541 1541 1540 1540 1540 1539 1539 1539 1538 1537 1537 1536 1535 1535 1535 1535 1534 1534 1535
1528 1530 1531 1532 1533 1534 1535 1536 1536 1537 1538 1538 1539 1539 1539 1540 1540 1540 1540 1540 1540 1541 1541 1541 1540 1540 1540 1540 1539 1539 1539 1538 1538 1537 1537 1536 1536 1535 1535 1535 1535 1534 1534
1528 1530 1531 1532 1533 1534 1535 1536 1536 1537 1538 1538 1539 1539 1539 1539 1540 1540 1540 1540 1540 1540 1540 1540 1540 1540 1539 1539 1539 1538 1538 1538 1538 1537 1536 1536 1536 1535 1535 1534 1534 1534 1535
1528 1529 1530 1531 1532 1533 1534 1535 1536 1536 1537 1538 1538 1539 1539 1539 1539 1539 1539 1539 1539 1539 1539 1539 1539 1539 1539 1539 1538 1538 1537 1537 1537 1536 1536 1536 1535 1535 1535 1534 1534 1534 1534
1526 1527 1529 1530 1531 1532 1534 1535 1536 1536 1537 1537 1538 1538 1538 1538 1538 1538 1538 1538 1538 1538 1539 1538 1538 1538 1538 1538 1538 1537 1537 1538 1536 1536 1535 1535 1535 1535 1535 1534 1534 1534 1534
1525 1526 1527 1529 1530 1532 1533 1534 1535 1536 1536 1537 1537 1537 1538 1538 1538 1538 1537 1538 1538 1538 1538 1538 1538 1538 1538 1538 1537 1537 1537 1536 1535 1535 1534 1534 1534 1534 1534 1534 1534 1534 1534
1523 1525 1526 1528 1529 1531 1532 1533 1533 1534 1534 1535 1536 1536 1537 1537 1537 1537 1537 1537 1537 1537 1537 1537 1537 1537 1537 1537 1537 1536 1536 1536 1535 1534 1534 1533 1533 1533 1533 1533 1533 1533 1533
1522 1524 1525 1527 1528 1529 1530 1531 1532 1533 1534 1535 1535 1535 1536 1536 1536 1536 1536 1536 1536 1536 1536 1536 1536 1536 1536 1536 1536 1535 1535 1535 1534 1534 1533 1532 1532 1532 1532 1532 1532 1532 1532
1521 1523 1524 1525 1526 1527 1529 1530 1530 1531 1532 1533 1533 1534 1534 1535 1535 1535 1535 1535 1535 1535 1535 1535 1535 1535 1535 1535 1534 1534 1534 1533 1533 1532 1532 1531 1530 1530 1530 1530 1530 1530 1530